TimeCDT,TemperatureF,Dew PointF,Humidity,Sea Level PressureIn,VisibilityMPH,Wind Direction,Wind SpeedMPH,Gust SpeedMPH,PrecipitationIn,Events,Conditions,WindDirDegrees,DateUTC
12:15 AM,73.8,65.7,76,30.00,10.0,Calm,Calm,-,N/A,,Clear,0,2013-09-08 05:15:00
12:35 AM,74.3,65.8,75,30.00,10.0,Calm,Calm,-,N/A,,Clear,0,2013-09-08 05:35:00
12:55 AM,73.4,65.8,77,29.99,10.0,Calm,Calm,-,N/A,,Clear,0,2013-09-08 05:55:00
1:15 AM,73.6,66.2,78,29.99,10.0,Calm,Calm,-,N/A,,Clear,0,2013-09-08 06:15:00
1:35 AM,73.2,66.2,79,29.99,10.0,Calm,Calm,-,N/A,,Clear,0,2013-09-08 06:35:00
1:55 AM,72.5,66.2,81,29.99,10.0,Calm,Calm,-,N/A,,Clear,0,2013-09-08 06:55:00
2:15 AM,72.0,66.2,82,29.98,10.0,Calm,Calm,-,N/A,,Clear,0,2013-09-08 07:15:00
2:35 AM,71.4,66.2,84,29.98,10.0,Calm,Calm,-,N/A,,Clear,0,2013-09-08 07:35:00
2:55 AM,70.9,66.4,86,29.99,10.0,Calm,Calm,-,N/A,,Clear,0,2013-09-08 07:55:00
3:15 AM,69.4,65.1,86,29.98,10.0,Calm,Calm,-,N/A,,Clear,0,2013-09-08 08:15:00
3:35 AM,69.8,65.7,87,29.98,10.0,Calm,Calm,-,N/A,,Clear,0,2013-09-08 08:35:00
3:55 AM,69.3,66.0,89,29.98,10.0,Calm,Calm,-,N/A,,Clear,0,2013-09-08 08:55:00
4:15 AM,69.8,66.6,89,29.98,10.0,Calm,Calm,-,N/A,,Clear,0,2013-09-08 09:15:00
4:35 AM,68.9,65.7,89,29.98,10.0,Calm,Calm,-,N/A,,Clear,0,2013-09-08 09:35:00
4:55 AM,68.9,65.8,90,29.98,10.0,Calm,Calm,-,N/A,,Clear,0,2013-09-08 09:55:00
5:15 AM,68.9,66.0,90,29.98,10.0,Calm,Calm,-,N/A,,Clear,0,2013-09-08 10:15:00
5:35 AM,69.6,66.9,91,29.98,10.0,Calm,Calm,-,N/A,,Clear,0,2013-09-08 10:35:00
5:55 AM,68.9,66.2,91,29.99,10.0,Calm,Calm,-,N/A,,Clear,0,2013-09-08 10:55:00
6:15 AM,68.2,65.5,91,29.99,10.0,Calm,Calm,-,N/A,,Clear,0,2013-09-08 11:15:00
6:55 AM,68.4,65.8,92,30.00,10.0,Calm,Calm,-,N/A,,Clear,0,2013-09-08 11:55:00
7:15 AM,68.0,65.5,92,30.01,10.0,Calm,Calm,-,N/A,,Clear,0,2013-09-08 12:15:00
7:35 AM,68.5,66.2,92,30.02,10.0,Calm,Calm,-,N/A,,Clear,0,2013-09-08 12:35:00
7:55 AM,70.3,67.1,89,30.02,10.0,Calm,Calm,-,N/A,,Clear,0,2013-09-08 12:55:00
8:15 AM,72.0,67.1,85,30.02,10.0,Calm,Calm,-,N/A,,Clear,0,2013-09-08 13:15:00
8:35 AM,74.3,67.3,79,30.03,10.0,Calm,Calm,-,N/A,,Clear,0,2013-09-08 13:35:00
8:55 AM,76.6,67.1,72,30.03,10.0,Calm,Calm,-,N/A,,Clear,0,2013-09-08 13:55:00
9:15 AM,78.8,67.1,67,30.03,10.0,Calm,Calm,-,N/A,,Clear,0,2013-09-08 14:15:00
9:35 AM,81.3,67.3,62,30.03,10.0,Calm,Calm,-,N/A,,Clear,0,2013-09-08 14:35:00
9:55 AM,82.6,66.2,58,30.03,10.0,Calm,Calm,-,N/A,,Clear,0,2013-09-08 14:55:00
10:15 AM,83.3,65.7,55,30.03,10.0,Calm,Calm,-,N/A,,Clear,0,2013-09-08 15:15:00
10:35 AM,84.2,65.1,53,30.03,10.0,WSW,3.5,-,N/A,,Clear,250,2013-09-08 15:35:00
10:55 AM,86.0,64.2,48,30.03,10.0,Calm,Calm,-,N/A,,Clear,0,2013-09-08 15:55:00
11:15 AM,87.8,63.3,44,30.02,10.0,NNE,3.5,-,N/A,,Clear,20,2013-09-08 16:15:00
11:35 AM,89.1,62.6,41,30.02,10.0,SE,5.8,-,N/A,,Clear,130,2013-09-08 16:35:00
11:55 AM,90.9,61.5,37,30.02,10.0,SSE,4.6,-,N/A,,Clear,160,2013-09-08 16:55:00
12:15 PM,91.6,59.5,34,30.01,10.0,East,5.8,-,N/A,,Clear,100,2013-09-08 17:15:00
12:35 PM,92.1,59.0,33,30.01,10.0,SSW,4.6,-,N/A,,Clear,210,2013-09-08 17:35:00
12:55 PM,92.1,59.4,33,30.00,10.0,SW,3.5,-,N/A,,Clear,230,2013-09-08 17:55:00
1:15 PM,91.4,59.5,34,29.99,10.0,Calm,Calm,-,N/A,,Scattered Clouds,0,2013-09-08 18:15:00
1:35 PM,91.6,58.8,33,29.98,10.0,South,6.9,-,N/A,,Mostly Cloudy,190,2013-09-08 18:35:00
1:55 PM,95.2,58.8,30,29.98,10.0,South,10.4,-,N/A,,Mostly Cloudy,180,2013-09-08 18:55:00
2:15 PM,95.9,58.3,28,29.97,10.0,SSW,6.9,-,N/A,,Scattered Clouds,210,2013-09-08 19:15:00
2:35 PM,93.4,56.3,29,29.96,10.0,SSE,6.9,-,N/A,,Scattered Clouds,150,2013-09-08 19:35:00
2:55 PM,95.9,56.5,27,29.95,10.0,East,8.1,-,N/A,,Clear,80,2013-09-08 19:55:00
3:15 PM,95.2,56.8,28,29.94,10.0,NE,5.8,-,N/A,,Scattered Clouds,50,2013-09-08 20:15:00
3:35 PM,97.2,55.9,25,29.93,10.0,SE,11.5,-,N/A,,Clear,140,2013-09-08 20:35:00
3:55 PM,97.9,54.9,24,29.92,10.0,South,3.5,-,N/A,,Scattered Clouds,190,2013-09-08 20:55:00
4:15 PM,97.5,54.7,24,29.92,10.0,SSW,3.5,-,N/A,,Scattered Clouds,200,2013-09-08 21:15:00
4:35 PM,95.4,54.5,25,29.91,10.0,South,6.9,-,N/A,,Scattered Clouds,170,2013-09-08 21:35:00
4:55 PM,97.7,54.5,23,29.90,10.0,SSE,8.1,-,N/A,,Scattered Clouds,160,2013-09-08 21:55:00
5:15 PM,97.3,54.0,23,29.90,10.0,SSE,9.2,-,N/A,,Clear,150,2013-09-08 22:15:00
5:35 PM,97.5,53.1,22,29.90,10.0,South,6.9,-,N/A,,Scattered Clouds,170,2013-09-08 22:35:00
5:55 PM,95.0,52.7,24,29.90,10.0,SSE,6.9,-,N/A,,Mostly Cloudy,150,2013-09-08 22:55:00
6:15 PM,95.2,54.1,25,29.90,10.0,ESE,8.1,-,N/A,,Scattered Clouds,120,2013-09-08 23:15:00
6:35 PM,94.8,54.1,25,29.90,10.0,SSE,9.2,-,N/A,,Clear,150,2013-09-08 23:35:00
6:55 PM,91.9,54.7,28,29.91,10.0,SE,3.5,-,N/A,,Clear,130,2013-09-08 23:55:00
7:15 PM,91.0,54.7,29,29.91,10.0,ESE,3.5,-,N/A,,Clear,120,2013-09-09 00:15:00
7:35 PM,88.5,55.6,33,29.92,10.0,Calm,Calm,-,N/A,,Clear,0,2013-09-09 00:35:00
7:55 PM,86.9,56.5,35,29.92,10.0,Calm,Calm,-,N/A,,Clear,0,2013-09-09 00:55:00
8:15 PM,84.9,57.7,39,29.93,10.0,Calm,Calm,-,N/A,,Clear,0,2013-09-09 01:15:00
8:35 PM,82.8,58.3,43,29.93,10.0,Calm,Calm,-,N/A,,Clear,0,2013-09-09 01:35:00
8:55 PM,81.1,59.0,47,29.94,10.0,Calm,Calm,-,N/A,,Clear,0,2013-09-09 01:55:00
9:15 PM,80.6,59.2,48,29.95,10.0,Calm,Calm,-,N/A,,Clear,0,2013-09-09 02:15:00
9:35 PM,80.2,59.4,49,29.95,10.0,Calm,Calm,-,N/A,,Clear,0,2013-09-09 02:35:00
9:55 PM,78.8,59.0,51,29.96,10.0,Calm,Calm,-,N/A,,Clear,0,2013-09-09 02:55:00
10:15 PM,77.9,59.2,52,29.96,10.0,Calm,Calm,-,N/A,,Clear,0,2013-09-09 03:15:00
10:35 PM,77.4,59.2,53,29.96,10.0,Calm,Calm,-,N/A,,Clear,0,2013-09-09 03:35:00
10:55 PM,76.8,59.4,55,29.96,10.0,Calm,Calm,-,N/A,,Clear,0,2013-09-09 03:55:00
11:15 PM,75.7,60.4,59,29.96,10.0,Calm,Calm,-,N/A,,Clear,0,2013-09-09 04:15:00
11:35 PM,75.2,60.8,61,29.96,10.0,Calm,Calm,-,N/A,,Clear,0,2013-09-09 04:35:00
11:55 PM,73.8,59.9,62,29.96,10.0,Calm,Calm,-,N/A,,Clear,0,2013-09-09 04:55:00